• Processing (Info)

  • MPEC 2022-M50 : 2013 PV13

    The following Minor Planet Electronic Circular may be linked-to from your own Web pages, but must not otherwise be redistributed electronically.

    A form allowing access to any MPEC is at the bottom of this page.


    Read MPEC 2022-M49 Read MPEC 2022-M51


    M.P.E.C. 2022-M50                                 Issued 2022 June 23, 14:07 UT
    
         The Minor Planet Electronic Circulars contain information on unusual
             minor planets and routine data on comets.  They are published
        on behalf of Division F of the International Astronomical Union by the
              Minor Planet Center, Smithsonian Astrophysical Observatory,
                              Cambridge, MA 02138, U.S.A.
    
                 Prepared using the Tamkin Foundation Computer Network
    
                                  MPC@CFA.HARVARD.EDU
                URL https://www.minorplanetcenter.net/    ISSN 1523-6714
    
                                    2013 PV13                                
    
    
                               Revision to MPEC 2013-P47                            
    
    Additional Observations:
         K13P13V  C2022 06 20.43145317 41 11.569-01 27 13.38         22.13GVEM050T14
         K13P13V  C2022 06 20.43266117 41 11.462-01 27 13.22         22.21GVEM050T14
         K13P13V  C2022 06 20.43387017 41 11.354-01 27 13.07         22.28GVEM050T14
         K13P13V  C2022 06 21.50548617 39 38.737-01 25 03.89         22.01GVEM050T14
         K13P13V  C2022 06 21.50669417 39 38.623-01 25 03.83         22.22GVEM050T14
         K13P13V  C2022 06 22.49665717 38 12.183-01 23 22.53         22.35GVEM050T14
         K13P13V  C2022 06 22.49786517 38 12.062-01 23 22.42         22.33GVEM050T14
         K13P13V  C2022 06 22.49907317 38 11.953-01 23 22.31         22.16GVEM050T14
    
    Observer details:
    T14 Mauna Kea-UH/Tholen NEO Follow-Up (CFHT).  Observers H. Januszewski, L.
        Wells.  Measurer D. J. Tholen.  3.6-m f/4.1 reflector + 1024 x 2306 pixels
        Megacam.
    
    First and last observations above in comparison with prediction:
    Residuals in seconds of arc (or two decimals in degrees), reference and Delta-T
    220620 T14 0.04+ 0.00+    220622 T14 0.04+ 0.00+    MPO473280   +0.10 days
    
    Orbital elements:
    2013 PV13                                           PHA, Earth MOID = 0.0443 AU
    Epoch 2022 Aug. 9.0 TT = JDT 2459800.5                  Veres                   
    M 340.37213              (2000.0)            P               Q                  
    n   0.21647772     Peri.  221.49477     +0.96891329     -0.22653872             
    a   2.7470122      Node   151.14281     +0.24360589     +0.94372629             
    e   0.6452538      Incl.   11.88965     -0.04316477     +0.24095830             
    P   4.55           H   20.72          G   0.15           U   0                  
    Residuals in seconds of arc
    130806 J75  0.8-  0.9+    130809 I41  0.1+  0.2+    130819 160  0.5-  0.3-
    130806 J75  0.6+  0.4-    130809 I41  0.1+  0.3+    130819 160  0.1-  0.5+
    130807 J75  0.2-  0.2-    130809 I41  0.0   0.3+    130819 H21  0.3+  0.2+
    130807 I41  0.4+  0.1+    130811 204  0.2+  0.1-    130819 H21  0.3+  0.3+
    130807 I41  0.3+  0.1+    130811 204  0.0   0.0     130819 H21  0.2+  0.2+
    130807 I41  0.3+  0.1+    130811 204  0.0   0.1-    130819 H21  0.2+  0.1+
    130807 461  0.1+  0.2-    130811 291  0.2-  0.1-    130819 H21  0.2+  0.2+
    130807 461  0.3+  0.5-    130811 291  0.1-  0.0     130819 F51  0.2+  0.2-
    130807 461  0.1+  0.2-    130811 H21  0.1+  0.2-    130822 204  0.0   0.2-
    130807 461  0.2-  0.1-    130811 H21  0.2+  0.1-    130822 204  0.0   0.0
    130807 461  0.0   0.1-    130811 H21  0.1+  0.1-    130822 204  0.0   0.1-
    130807 461  0.3+  0.1-    130812 291  0.0   0.2-    130830 807  0.2+  0.1-
    130807 461  0.2-  0.1-    130812 291  0.0   0.2-    130830 807  0.0   0.4-
    130807 461  0.2+  0.0     130812 291  0.0   0.2-    130830 807  0.2-  0.0
    130807 J95  0.7+  0.0     130813 Y00  0.4+  0.2-    130831 F51  0.0   0.0
    130807 J95  0.3+  0.4+    130813 Y00  0.4-  0.2+    130831 F51  0.1-  0.3+
    130807 A79  0.5-  0.0     130813 Y00  0.7+  0.3+    131203 F51  0.1-  0.2+
    130807 J95  0.1+  0.1-    130814 H21  0.3+  0.1-    131203 F51  0.2+  0.0
    130807 A79  0.9-  0.1+    130814 H21  0.4+  0.1-    131230 807  0.2-  0.3-
    130807 A79  1.4-  0.2+    130814 H21  0.3+  0.2-    131230 807  0.0   0.4-
    130807 A79  1.2-  0.2+    130814 H21  0.2+  0.0     131230 807  0.3+  0.0
    130807 106  0.0   0.2+    130814 H21  0.2+  0.1-    140110 291  0.1-  0.3-
    130807 106  0.6+  0.0     130815 H21  0.1+  0.0     140110 291  0.3-  1.0-
    130807 106  0.5-  0.2-    130815 H21  0.2+  0.2+    220620 T14  0.0   0.0
    130807 106  0.6+  0.8-    130815 H21  0.2+  0.2+    220620 T14  0.0   0.0
    130808 595  0.4-  0.0     130815 H21  0.4+  0.0     220620 T14  0.0   0.0
    130808 595  0.4-  0.1-    130817 160  0.4+  0.0     220621 T14  0.1+  0.0
    130808 I41  0.2+  0.2+    130817 160  0.1+  0.0     220621 T14  0.0   0.1-
    130808 I41  0.1+  0.1+    130817 160  0.1+  0.4-    220622 T14  0.1+  0.0
    130808 H36  0.2+  0.1+    130817 807  0.1-  0.5-    220622 T14  0.1-  0.0
    130808 H36  0.2+  0.0     130817 807  0.1+  0.4-    220622 T14  0.0   0.0
    130808 I41  0.1+  0.3+    130817 807  0.1-  0.4-
    130808 H36  1.3-  0.2-    130819 160  0.9-  0.3-
    
    Ephemeris:
    2013 PV13                a,e,i = 2.75, 0.65, 12                  q = 0.9745
    Date    TT    R. A. (2000) Decl.     Delta      r    Elong.  Phase     V
    2022 05 24    18 09 28.5 -03 44 49   1.2732  2.1793   144.6    15.6    23.8
    ...
    2022 06 08    17 56 59.2 -02 13 25   1.0900  2.0576   155.6    11.7    23.2
    ...
    2022 06 16    17 47 17.8 -01 39 27   1.0121  1.9912   158.2    10.9    22.9
    ...
    2022 06 22    17 38 56.0 -01 24 08   0.9631  1.9408   157.3    11.7    22.8
    2022 06 23    17 37 28.2 -01 22 35   0.9558  1.9323   156.9    11.9    22.8
    2022 06 24    17 35 59.4 -01 21 20   0.9486  1.9239   156.5    12.2    22.8
    ...
    2022 06 30    17 26 52.1 -01 20 40   0.9105  1.8728   152.7    14.4    22.7
    ...
    2022 07 08    17 14 37.2 -01 39 20   0.8715  1.8041   145.6    18.6    22.7
    ...
    2022 07 23    16 54 36.8 -03 15 57   0.8289  1.6736   130.0    27.7    22.7
    
    A. U. Tomatic                (C) Copyright 2022 MPC           M.P.E.C. 2022-M50
    


    Read MPEC 2022-M49 Read MPEC 2022-M51


    MPEC number:

    Enter an MPEC number in one of the following forms:

    • 1997-B01 (the full form)
    • J97B01 (the packed version of the full form)
    • B01 (the abbreviated form)